Weather History for KGCC - September, 2012

Change the Weather History Date:

Wednesday, September 12, 2012

  Actual Average Record
Temperature  
Mean Temperature 50 °F 60 °F  
Max Temperature 68 °F 76 °F 96 °F (1959)
Min Temperature 32 °F 45 °F 23 °F (1949)
Degree Days  
Heating Degree Days 15 6  
Month to date heating degree days 44 57  
Since 1 July heating degree days 71 114  
Cooling Degree Days 0 2  
Month to date cooling degree days 38 30  
Year to date cooling degree days 794 490  
Moisture  
Dew Point 23 °F    
Average Humidity 40    
Maximum Humidity 61    
Minimum Humidity 19    
Precipitation  
Precipitation 0.00 in 0.03 in 0.50 in (1961)
Month to date precipitation T 0.43  
Year to date precipitation 7.57 10.91  
Sea Level Pressure  
Sea Level Pressure 30.23 in    
Wind  
Wind Speed 3 mph (NNE)    
Max Wind Speed 18 mph    
Max Gust Speed 22 mph    
Visibility 10 miles    
Events      
T = Trace of Precipitation, MM = Missing Value Source: NWS Daily Summary

Daily Weather History Graph

Daily Weather History Graph

Search for Another Location

Airport or City:

Trip Planner

Search our weather history database for the weather conditions in past years. The results will help you decide how hot, cold, wet, or windy it might be!

Date:

Astronomy

Sep. 12, 2012 Rise Set
Actual Time 6:38 AM MDT 7:17 PM MDT
Civil Twilight 6:09 AM MDT 7:46 PM MDT
Nautical Twilight 5:34 AM MDT 8:21 PM MDT
Astronomical Twilight 4:58 AM MDT 8:56 PM MDT
Moon 2:51 AM MDT (9/12) 5:11 PM MDT (9/12)
Length of Visible Light 13h 37m
Length of Day
12h 38m
Waning Crescent, 13% of the Moon is Illuminated
Sep 12
Waning Crescent
Sep 15
New
Sep 22
First Quarter
Sep 29
Full
Oct 8
Last Quarter

Hourly Weather History & Observations

Time (MDT) Temp. Windchill Dew Point Humidity Pressure Visibility Wind Dir Wind Speed Gust Speed Precip Events Conditions
12:53 AM 42.1 °F - 24.1 °F 49% 30.12 in 10.0 mi Calm Calm - N/A   Clear
1:53 AM 42.1 °F - 24.1 °F 49% 30.13 in 10.0 mi Calm Calm - N/A   Clear
2:53 AM 37.9 °F - 21.9 °F 53% 30.14 in 10.0 mi Calm Calm - N/A   Clear
3:53 AM 39.0 °F 36.8 °F 21.9 °F 50% 30.14 in 10.0 mi WSW 3.5 mph - N/A   Clear
4:53 AM 34.0 °F 31.0 °F 21.9 °F 61% 30.17 in 10.0 mi West 3.5 mph - N/A   Clear
5:53 AM 34.0 °F - 21.9 °F 61% 30.18 in 10.0 mi Calm Calm - N/A   Clear
6:53 AM 36.0 °F - 21.9 °F 57% 30.21 in 10.0 mi Calm Calm - N/A   Clear
7:53 AM 45.0 °F - 24.1 °F 44% 30.22 in 10.0 mi Calm Calm - N/A   Clear
8:53 AM 52.0 °F - 24.1 °F 34% 30.23 in 10.0 mi Calm Calm - N/A   Clear
9:53 AM 57.0 °F - 24.1 °F 28% 30.25 in 10.0 mi Calm Calm - N/A   Clear
10:53 AM 60.1 °F - 26.1 °F 27% 30.24 in 10.0 mi NNW 3.5 mph - N/A   Partly Cloudy
11:53 AM 63.0 °F - 27.0 °F 26% 30.23 in 10.0 mi Calm Calm - N/A   Partly Cloudy
12:53 PM 64.9 °F - 26.1 °F 23% 30.22 in 10.0 mi Calm Calm - N/A   Mostly Cloudy
1:53 PM 66.0 °F - 27.0 °F 23% 30.21 in 10.0 mi Calm Calm - N/A   Scattered Clouds
2:53 PM 64.9 °F - 27.0 °F 24% 30.22 in 10.0 mi North 9.2 mph - N/A   Overcast
3:53 PM 64.9 °F - 27.0 °F 24% 30.22 in 10.0 mi NNE 9.2 mph - N/A   Mostly Cloudy
4:53 PM 64.9 °F - 23.0 °F 20% 30.24 in 10.0 mi ENE 17.3 mph - N/A   Mostly Cloudy
5:53 PM 64.0 °F - 21.9 °F 20% 30.26 in 10.0 mi East 10.4 mph - N/A   Clear
6:53 PM 60.8 °F - 21.2 °F 22% 30.30 in 10.0 mi NNE 10.4 mph - N/A   Clear
7:53 PM 51.1 °F - 19.9 °F 29% 30.31 in 10.0 mi Calm Calm - N/A   Clear
8:53 PM 41.0 °F - 19.0 °F 41% 30.33 in 10.0 mi Calm Calm - N/A   Clear
9:53 PM 39.0 °F 35.7 °F 19.9 °F 46% 30.34 in 10.0 mi South 4.6 mph - N/A   Clear
10:53 PM 39.9 °F 37.8 °F 21.9 °F 49% 30.35 in 10.0 mi South 3.5 mph - N/A   Clear
11:53 PM 37.9 °F 34.4 °F 21.9 °F 53% 30.33 in 10.0 mi South 4.6 mph - N/A   Clear